Year,Month,Day,Hour,Minute,Value (Times are PST for insolation in W/m^2)
2015,04,27,00,00,0.00
2015,04,27,00,01,0.00
2015,04,27,00,02,0.00
2015,04,27,00,03,0.00
2015,04,27,00,04,0.00
2015,04,27,00,05,0.00
2015,04,27,00,06,0.00
2015,04,27,00,07,0.00
2015,04,27,00,08,0.00
2015,04,27,00,09,0.00
2015,04,27,00,10,0.00
2015,04,27,00,11,0.00
2015,04,27,00,12,0.00
2015,04,27,00,13,0.00
2015,04,27,00,14,0.00
2015,04,27,00,15,0.00
2015,04,27,00,16,0.00
2015,04,27,00,17,0.00
2015,04,27,00,18,0.00
2015,04,27,00,19,0.00
2015,04,27,00,20,0.00
2015,04,27,00,21,0.00
2015,04,27,00,22,0.00
2015,04,27,00,23,0.00
2015,04,27,00,24,0.00
2015,04,27,00,25,0.00
2015,04,27,00,26,0.00
2015,04,27,00,27,0.00
2015,04,27,00,28,0.00
2015,04,27,00,29,0.00
2015,04,27,00,30,0.00
2015,04,27,00,31,0.00
2015,04,27,00,32,0.00
2015,04,27,00,33,0.00
2015,04,27,00,34,0.00
2015,04,27,00,35,0.00
2015,04,27,00,36,0.00
2015,04,27,00,37,0.00
2015,04,27,00,38,0.00
2015,04,27,00,39,0.00
2015,04,27,00,40,0.00
2015,04,27,00,41,0.00
2015,04,27,00,42,0.00
2015,04,27,00,43,0.00
2015,04,27,00,44,0.00
2015,04,27,00,45,0.00
2015,04,27,00,46,0.00
2015,04,27,00,47,0.00
2015,04,27,00,48,0.00
2015,04,27,00,49,0.00
2015,04,27,00,50,0.00
2015,04,27,00,51,0.00
2015,04,27,00,52,0.00
2015,04,27,00,53,0.00
2015,04,27,00,54,0.00
2015,04,27,00,55,0.00
2015,04,27,00,56,0.00
2015,04,27,00,57,0.00
2015,04,27,00,58,0.00
2015,04,27,00,59,0.00
2015,04,27,01,00,0.00
2015,04,27,01,01,0.00
2015,04,27,01,02,0.00
2015,04,27,01,03,0.00
2015,04,27,01,04,0.00
2015,04,27,01,05,0.00
2015,04,27,01,06,0.00
2015,04,27,01,07,0.00
2015,04,27,01,08,0.00
2015,04,27,01,09,0.00
2015,04,27,01,10,0.00
2015,04,27,01,11,0.00
2015,04,27,01,12,0.00
2015,04,27,01,13,0.00
2015,04,27,01,14,0.00
2015,04,27,01,15,0.00
2015,04,27,01,16,0.00
2015,04,27,01,17,0.00
2015,04,27,01,18,0.00
2015,04,27,01,19,0.00
2015,04,27,01,20,0.00
2015,04,27,01,21,0.00
2015,04,27,01,22,0.00
2015,04,27,01,23,0.00
2015,04,27,01,24,0.00
2015,04,27,01,25,0.00
2015,04,27,01,26,0.00
2015,04,27,01,27,0.00
2015,04,27,01,28,0.00
2015,04,27,01,29,0.00
2015,04,27,01,30,0.00
2015,04,27,01,31,0.00
2015,04,27,01,32,0.00
2015,04,27,01,33,0.00
2015,04,27,01,34,0.00
2015,04,27,01,35,0.00
2015,04,27,01,36,0.00
2015,04,27,01,37,0.00
2015,04,27,01,38,0.00
2015,04,27,01,39,0.00
2015,04,27,01,40,0.00
2015,04,27,01,41,0.00
2015,04,27,01,42,0.00
2015,04,27,01,43,0.00
2015,04,27,01,44,0.00
2015,04,27,01,45,0.00
2015,04,27,01,46,0.00
2015,04,27,01,47,0.00
2015,04,27,01,48,0.00
2015,04,27,01,49,0.00
2015,04,27,01,50,0.00
2015,04,27,01,51,0.00
2015,04,27,01,52,0.00
2015,04,27,01,53,0.00
2015,04,27,01,54,0.00
2015,04,27,01,55,0.00
2015,04,27,01,56,0.00
2015,04,27,01,57,0.00
2015,04,27,01,58,0.00
2015,04,27,01,59,0.00
2015,04,27,02,00,0.00
2015,04,27,02,01,0.00
2015,04,27,02,02,0.00
2015,04,27,02,03,0.00
2015,04,27,02,04,0.00
2015,04,27,02,05,0.00
2015,04,27,02,06,0.00
2015,04,27,02,07,0.00
2015,04,27,02,08,0.00
2015,04,27,02,09,0.00
2015,04,27,02,10,0.00
2015,04,27,02,11,0.00
2015,04,27,02,12,0.00
2015,04,27,02,13,0.00
2015,04,27,02,14,0.00
2015,04,27,02,15,0.00
2015,04,27,02,16,0.00
2015,04,27,02,17,0.00
2015,04,27,02,18,0.00
2015,04,27,02,19,0.00
2015,04,27,02,20,0.00
2015,04,27,02,21,0.00
2015,04,27,02,22,0.00
2015,04,27,02,23,0.00
2015,04,27,02,24,0.00
2015,04,27,02,25,0.00
2015,04,27,02,26,0.00
2015,04,27,02,27,0.00
2015,04,27,02,28,0.00
2015,04,27,02,29,0.00
2015,04,27,02,30,0.00
2015,04,27,02,31,0.00
2015,04,27,02,32,0.00
2015,04,27,02,33,0.00
2015,04,27,02,34,0.00
2015,04,27,02,35,0.00
2015,04,27,02,36,0.00
2015,04,27,02,37,0.00
2015,04,27,02,38,0.00
2015,04,27,02,39,0.00
2015,04,27,02,40,0.00
2015,04,27,02,41,0.00
2015,04,27,02,42,0.00
2015,04,27,02,43,0.00
2015,04,27,02,44,0.00
2015,04,27,02,45,0.00
2015,04,27,02,46,0.00
2015,04,27,02,47,0.00
2015,04,27,02,48,0.00
2015,04,27,02,49,0.00
2015,04,27,02,50,0.00
2015,04,27,02,51,0.00
2015,04,27,02,52,0.00
2015,04,27,02,53,0.00
2015,04,27,02,54,0.00
2015,04,27,02,55,0.00
2015,04,27,02,56,0.00
2015,04,27,02,57,0.00
2015,04,27,02,58,0.00
2015,04,27,02,59,0.00
2015,04,27,03,00,0.00
2015,04,27,03,01,0.00
2015,04,27,03,02,0.00
2015,04,27,03,03,0.00
2015,04,27,03,04,0.00
2015,04,27,03,05,0.00
2015,04,27,03,06,0.00
2015,04,27,03,07,0.00
2015,04,27,03,08,0.00
2015,04,27,03,09,0.00
2015,04,27,03,10,0.00
2015,04,27,03,11,0.00
2015,04,27,03,12,0.00
2015,04,27,03,13,0.00
2015,04,27,03,14,0.00
2015,04,27,03,15,0.00
2015,04,27,03,16,0.00
2015,04,27,03,17,0.00
2015,04,27,03,18,0.00
2015,04,27,03,19,0.00
2015,04,27,03,20,0.00
2015,04,27,03,21,0.00
2015,04,27,03,22,0.00
2015,04,27,03,23,0.00
2015,04,27,03,24,0.00
2015,04,27,03,25,0.00
2015,04,27,03,26,0.00
2015,04,27,03,27,0.00
2015,04,27,03,28,0.00
2015,04,27,03,29,0.00
2015,04,27,03,30,0.00
2015,04,27,03,31,0.00
2015,04,27,03,32,0.00
2015,04,27,03,33,0.00
2015,04,27,03,34,0.00
2015,04,27,03,35,0.00
2015,04,27,03,36,0.00
2015,04,27,03,37,0.00
2015,04,27,03,38,0.00
2015,04,27,03,39,0.00
2015,04,27,03,40,0.00
2015,04,27,03,41,0.00
2015,04,27,03,42,0.00
2015,04,27,03,43,0.00
2015,04,27,03,44,0.00
2015,04,27,03,45,0.00
2015,04,27,03,46,0.00
2015,04,27,03,47,0.00
2015,04,27,03,48,0.00
2015,04,27,03,49,0.00
2015,04,27,03,50,0.00
2015,04,27,03,51,0.00
2015,04,27,03,52,0.00
2015,04,27,03,53,0.00
2015,04,27,03,54,0.00
2015,04,27,03,55,0.00
2015,04,27,03,56,0.00
2015,04,27,03,57,0.00
2015,04,27,03,58,0.00
2015,04,27,03,59,0.00
2015,04,27,04,00,0.00
2015,04,27,04,01,0.00
2015,04,27,04,02,0.00
2015,04,27,04,03,0.00
2015,04,27,04,04,0.00
2015,04,27,04,05,0.00
2015,04,27,04,06,0.00
2015,04,27,04,07,0.00
2015,04,27,04,08,0.00
2015,04,27,04,09,0.00
2015,04,27,04,10,0.00
2015,04,27,04,11,0.00
2015,04,27,04,12,0.00
2015,04,27,04,13,0.00
2015,04,27,04,14,0.00
2015,04,27,04,15,0.00
2015,04,27,04,16,0.00
2015,04,27,04,17,0.00
2015,04,27,04,18,0.00
2015,04,27,04,19,0.00
2015,04,27,04,20,0.00
2015,04,27,04,21,0.00
2015,04,27,04,22,0.00
2015,04,27,04,23,0.00
2015,04,27,04,24,0.00
2015,04,27,04,25,0.00
2015,04,27,04,26,0.00
2015,04,27,04,27,0.00
2015,04,27,04,28,0.00
2015,04,27,04,29,0.00
2015,04,27,04,30,0.00
2015,04,27,04,31,0.00
2015,04,27,04,32,0.00
2015,04,27,04,33,0.00
2015,04,27,04,34,0.00
2015,04,27,04,35,0.00
2015,04,27,04,36,0.00
2015,04,27,04,37,0.00
2015,04,27,04,38,0.00
2015,04,27,04,39,0.00
2015,04,27,04,40,0.00
2015,04,27,04,41,0.00
2015,04,27,04,42,0.00
2015,04,27,04,43,0.00
2015,04,27,04,44,0.00
2015,04,27,04,45,0.00
2015,04,27,04,46,0.00
2015,04,27,04,47,0.00
2015,04,27,04,48,0.00
2015,04,27,04,49,0.00
2015,04,27,04,50,0.00
2015,04,27,04,51,0.00
2015,04,27,04,52,0.00
2015,04,27,04,53,0.00
2015,04,27,04,54,0.00
2015,04,27,04,55,0.00
2015,04,27,04,56,0.00
2015,04,27,04,57,0.00
2015,04,27,04,58,0.00
2015,04,27,04,59,0.00
2015,04,27,05,00,0.00
2015,04,27,05,01,0.00
2015,04,27,05,02,0.00
2015,04,27,05,03,0.00
2015,04,27,05,04,0.00
2015,04,27,05,05,0.00
2015,04,27,05,06,0.00
2015,04,27,05,07,0.00
2015,04,27,05,08,0.00
2015,04,27,05,09,0.00
2015,04,27,05,10,0.00
2015,04,27,05,11,0.00
2015,04,27,05,12,0.00
2015,04,27,05,13,0.00
2015,04,27,05,14,0.00
2015,04,27,05,15,0.00
2015,04,27,05,16,0.00
2015,04,27,05,17,0.00
2015,04,27,05,18,0.00
2015,04,27,05,19,0.00
2015,04,27,05,20,0.00
2015,04,27,05,21,0.00
2015,04,27,05,22,0.00
2015,04,27,05,23,0.00
2015,04,27,05,24,0.00
2015,04,27,05,25,0.00
2015,04,27,05,26,0.00
2015,04,27,05,27,0.00
2015,04,27,05,28,0.00
2015,04,27,05,29,0.00
2015,04,27,05,30,0.00
2015,04,27,05,31,0.00
2015,04,27,05,32,0.00
2015,04,27,05,33,0.00
2015,04,27,05,34,0.00
2015,04,27,05,35,0.00
2015,04,27,05,36,0.00
2015,04,27,05,37,0.00
2015,04,27,05,38,0.00
2015,04,27,05,39,0.00
2015,04,27,05,40,0.00
2015,04,27,05,41,0.00
2015,04,27,05,42,0.00
2015,04,27,05,43,0.00
2015,04,27,05,44,0.00
2015,04,27,05,45,0.00
2015,04,27,05,46,0.00
2015,04,27,05,47,0.00
2015,04,27,05,48,0.00
2015,04,27,05,49,0.00
2015,04,27,05,50,0.00
2015,04,27,05,51,0.00
2015,04,27,05,52,0.00
2015,04,27,05,53,0.00
2015,04,27,05,54,0.00
2015,04,27,05,55,0.00
2015,04,27,05,56,0.00
2015,04,27,05,57,0.00
2015,04,27,05,58,0.00
2015,04,27,05,59,0.00
2015,04,27,06,00,0.00
2015,04,27,06,01,0.00
2015,04,27,06,02,0.00
2015,04,27,06,03,0.00
2015,04,27,06,04,0.00
2015,04,27,06,05,0.00
2015,04,27,06,06,0.00
2015,04,27,06,07,0.00
2015,04,27,06,08,0.00
2015,04,27,06,09,0.00
2015,04,27,06,10,0.00
2015,04,27,06,11,0.00
2015,04,27,06,12,0.00
2015,04,27,06,13,0.00
2015,04,27,06,14,0.00
2015,04,27,06,15,0.00
2015,04,27,06,16,0.00
2015,04,27,06,17,0.00
2015,04,27,06,18,0.00
2015,04,27,06,19,0.00
2015,04,27,06,20,0.00
2015,04,27,06,21,0.00
2015,04,27,06,22,0.00
2015,04,27,06,23,0.00
2015,04,27,06,24,0.00
2015,04,27,06,25,0.00
2015,04,27,06,26,0.00
2015,04,27,06,27,0.00
2015,04,27,06,28,0.00
2015,04,27,06,29,0.00
2015,04,27,06,30,0.00
2015,04,27,06,31,0.00
2015,04,27,06,32,0.00
2015,04,27,06,33,0.00
2015,04,27,06,34,0.00
2015,04,27,06,35,0.00
2015,04,27,06,36,0.00
2015,04,27,06,37,0.00
2015,04,27,06,38,0.00
2015,04,27,06,39,0.00
2015,04,27,06,40,0.00
2015,04,27,06,41,0.00
2015,04,27,06,42,3.00
2015,04,27,06,43,5.00
2015,04,27,06,44,5.00
2015,04,27,06,45,5.00
2015,04,27,06,46,5.00
2015,04,27,06,47,5.70
2015,04,27,06,48,7.00
2015,04,27,06,49,7.00
2015,04,27,06,50,5.60
2015,04,27,06,51,5.00
2015,04,27,06,52,5.00
2015,04,27,06,53,5.00
2015,04,27,06,54,5.00
2015,04,27,06,55,5.00
2015,04,27,06,56,5.00
2015,04,27,06,57,5.00
2015,04,27,06,58,5.00
2015,04,27,06,59,5.00
2015,04,27,07,00,5.00
2015,04,27,07,01,5.00
2015,04,27,07,02,5.90
2015,04,27,07,03,7.00
2015,04,27,07,04,7.00
2015,04,27,07,05,7.00
2015,04,27,07,06,9.10
2015,04,27,07,07,11.20
2015,04,27,07,08,12.70
2015,04,27,07,09,14.00
2015,04,27,07,10,12.90
2015,04,27,07,11,13.50
2015,04,27,07,12,12.40
2015,04,27,07,13,11.00
2015,04,27,07,14,11.00
2015,04,27,07,15,11.00
2015,04,27,07,16,11.50
2015,04,27,07,17,12.00
2015,04,27,07,18,13.40
2015,04,27,07,19,14.00
2015,04,27,07,20,14.00
2015,04,27,07,21,14.40
2015,04,27,07,22,16.70
2015,04,27,07,23,18.40
2015,04,27,07,24,21.30
2015,04,27,07,25,23.00
2015,04,27,07,26,24.60
2015,04,27,07,27,26.30
2015,04,27,07,28,30.40
2015,04,27,07,29,32.00
2015,04,27,07,30,31.10
2015,04,27,07,31,27.80
2015,04,27,07,32,25.30
2015,04,27,07,33,25.80
2015,04,27,07,34,27.90
2015,04,27,07,35,29.60
2015,04,27,07,36,35.70
2015,04,27,07,37,34.60
2015,04,27,07,38,28.00
2015,04,27,07,39,22.20
2015,04,27,07,40,25.10
2015,04,27,07,41,25.90
2015,04,27,07,42,25.20
2015,04,27,07,43,24.30
2015,04,27,07,44,20.10
2015,04,27,07,45,18.40
2015,04,27,07,46,15.20
2015,04,27,07,47,12.30
2015,04,27,07,48,12.10
2015,04,27,07,49,14.40
2015,04,27,07,50,16.00
2015,04,27,07,51,16.00
2015,04,27,07,52,14.90
2015,04,27,07,53,15.40
2015,04,27,07,54,16.00
2015,04,27,07,55,14.10
2015,04,27,07,56,14.00
2015,04,27,07,57,14.00
2015,04,27,07,58,14.00
2015,04,27,07,59,14.00
2015,04,27,08,00,16.80
2015,04,27,08,01,20.50
2015,04,27,08,02,19.10
2015,04,27,08,03,18.80
2015,04,27,08,04,18.00
2015,04,27,08,05,19.40
2015,04,27,08,06,21.00
2015,04,27,08,07,22.40
2015,04,27,08,08,23.00
2015,04,27,08,09,22.90
2015,04,27,08,10,20.60
2015,04,27,08,11,18.70
2015,04,27,08,12,17.10
2015,04,27,08,13,16.00
2015,04,27,08,14,17.40
2015,04,27,08,15,18.00
2015,04,27,08,16,17.90
2015,04,27,08,17,16.00
2015,04,27,08,18,16.00
2015,04,27,08,19,16.00
2015,04,27,08,20,16.00
2015,04,27,08,21,16.00
2015,04,27,08,22,16.00
2015,04,27,08,23,18.10
2015,04,27,08,24,22.10
2015,04,27,08,25,26.70
2015,04,27,08,26,27.10
2015,04,27,08,27,24.30
2015,04,27,08,28,20.20
2015,04,27,08,29,18.20
2015,04,27,08,30,19.00
2015,04,27,08,31,19.40
2015,04,27,08,32,21.60
2015,04,27,08,33,23.90
2015,04,27,08,34,22.80
2015,04,27,08,35,21.00
2015,04,27,08,36,24.40
2015,04,27,08,37,29.70
2015,04,27,08,38,28.40
2015,04,27,08,39,29.30
2015,04,27,08,40,29.80
2015,04,27,08,41,32.00
2015,04,27,08,42,32.70
2015,04,27,08,43,32.10
2015,04,27,08,44,28.50
2015,04,27,08,45,32.20
2015,04,27,08,46,34.30
2015,04,27,08,47,39.30
2015,04,27,08,48,45.90
2015,04,27,08,49,50.40
2015,04,27,08,50,51.00
2015,04,27,08,51,50.70
2015,04,27,08,52,47.00
2015,04,27,08,53,46.70
2015,04,27,08,54,44.10
2015,04,27,08,55,40.80
2015,04,27,08,56,41.40
2015,04,27,08,57,43.70
2015,04,27,08,58,43.60
2015,04,27,08,59,40.00
2015,04,27,09,00,39.70
2015,04,27,09,01,40.40
2015,04,27,09,02,40.90
2015,04,27,09,03,40.00
2015,04,27,09,04,39.10
2015,04,27,09,05,42.20
2015,04,27,09,06,45.10
2015,04,27,09,07,42.70
2015,04,27,09,08,43.10
2015,04,27,09,09,42.00
2015,04,27,09,10,42.00
2015,04,27,09,11,42.00
2015,04,27,09,12,40.20
2015,04,27,09,13,42.00
2015,04,27,09,14,41.30
2015,04,27,09,15,39.50
2015,04,27,09,16,40.70
2015,04,27,09,17,42.00
2015,04,27,09,18,46.20
2015,04,27,09,19,52.90
2015,04,27,09,20,57.10
2015,04,27,09,21,53.00
2015,04,27,09,22,49.20
2015,04,27,09,23,45.30
2015,04,27,09,24,41.20
2015,04,27,09,25,39.10
2015,04,27,09,26,35.40
2015,04,27,09,27,37.40
2015,04,27,09,28,39.00
2015,04,27,09,29,41.30
2015,04,27,09,30,41.80
2015,04,27,09,31,41.40
2015,04,27,09,32,43.60
2015,04,27,09,33,43.60
2015,04,27,09,34,39.70
2015,04,27,09,35,43.70
2015,04,27,09,36,51.30
2015,04,27,09,37,59.50
2015,04,27,09,38,56.40
2015,04,27,09,39,54.00
2015,04,27,09,40,49.00
2015,04,27,09,41,45.10
2015,04,27,09,42,45.00
2015,04,27,09,43,52.40
2015,04,27,09,44,60.10
2015,04,27,09,45,61.50
2015,04,27,09,46,62.40
2015,04,27,09,47,66.30
2015,04,27,09,48,59.10
2015,04,27,09,49,53.60
2015,04,27,09,50,49.00
2015,04,27,09,51,50.20
2015,04,27,09,52,55.90
2015,04,27,09,53,61.30
2015,04,27,09,54,62.70
2015,04,27,09,55,58.70
2015,04,27,09,56,53.00
2015,04,27,09,57,53.20
2015,04,27,09,58,54.30
2015,04,27,09,59,53.00
2015,04,27,10,00,62.80
2015,04,27,10,01,68.50
2015,04,27,10,02,64.60
2015,04,27,10,03,63.70
2015,04,27,10,04,65.00
2015,04,27,10,05,62.00
2015,04,27,10,06,66.30
2015,04,27,10,07,65.60
2015,04,27,10,08,80.90
2015,04,27,10,09,96.10
2015,04,27,10,10,103.00
2015,04,27,10,11,103.90
2015,04,27,10,12,95.20
2015,04,27,10,13,97.90
2015,04,27,10,14,107.30
2015,04,27,10,15,109.80
2015,04,27,10,16,122.70
2015,04,27,10,17,139.00
2015,04,27,10,18,147.00
2015,04,27,10,19,137.90
2015,04,27,10,20,131.50
2015,04,27,10,21,135.70
2015,04,27,10,22,113.70
2015,04,27,10,23,96.70
2015,04,27,10,24,91.70
2015,04,27,10,25,93.00
2015,04,27,10,26,95.40
2015,04,27,10,27,101.80
2015,04,27,10,28,109.70
2015,04,27,10,29,109.20
2015,04,27,10,30,110.60
2015,04,27,10,31,108.30
2015,04,27,10,32,111.20
2015,04,27,10,33,111.00
2015,04,27,10,34,100.00
2015,04,27,10,35,92.10
2015,04,27,10,36,84.80
2015,04,27,10,37,93.00
2015,04,27,10,38,96.70
2015,04,27,10,39,84.00
2015,04,27,10,40,77.00
2015,04,27,10,41,79.80
2015,04,27,10,42,81.00
2015,04,27,10,43,77.30
2015,04,27,10,44,78.40
2015,04,27,10,45,77.00
2015,04,27,10,46,77.70
2015,04,27,10,47,65.30
2015,04,27,10,48,51.70
2015,04,27,10,49,44.90
2015,04,27,10,50,45.60
2015,04,27,10,51,42.00
2015,04,27,10,52,41.30
2015,04,27,10,53,39.60
2015,04,27,10,54,41.90
2015,04,27,10,55,46.10
2015,04,27,10,56,54.30
2015,04,27,10,57,54.10
2015,04,27,10,58,53.40
2015,04,27,10,59,49.70
2015,04,27,11,00,46.50
2015,04,27,11,01,46.00
2015,04,27,11,02,46.70
2015,04,27,11,03,47.00
2015,04,27,11,04,47.50
2015,04,27,11,05,53.90
2015,04,27,11,06,58.70
2015,04,27,11,07,63.20
2015,04,27,11,08,70.90
2015,04,27,11,09,78.90
2015,04,27,11,10,79.40
2015,04,27,11,11,76.70
2015,04,27,11,12,72.70
2015,04,27,11,13,77.70
2015,04,27,11,14,85.20
2015,04,27,11,15,95.90
2015,04,27,11,16,97.90
2015,04,27,11,17,105.10
2015,04,27,11,18,132.90
2015,04,27,11,19,157.30
2015,04,27,11,20,163.70
2015,04,27,11,21,158.80
2015,04,27,11,22,160.20
2015,04,27,11,23,164.20
2015,04,27,11,24,156.50
2015,04,27,11,25,163.00
2015,04,27,11,26,162.00
2015,04,27,11,27,139.00
2015,04,27,11,28,136.80
2015,04,27,11,29,154.40
2015,04,27,11,30,177.50
2015,04,27,11,31,187.10
2015,04,27,11,32,187.60
2015,04,27,11,33,156.00
2015,04,27,11,34,142.60
2015,04,27,11,35,145.80
2015,04,27,11,36,152.70
2015,04,27,11,37,157.40
2015,04,27,11,38,168.60
2015,04,27,11,39,172.60
2015,04,27,11,40,193.00
2015,04,27,11,41,193.30
2015,04,27,11,42,176.70
2015,04,27,11,43,160.90
2015,04,27,11,44,160.80
2015,04,27,11,45,167.70
2015,04,27,11,46,191.90
2015,04,27,11,47,190.00
2015,04,27,11,48,194.70
2015,04,27,11,49,211.10
2015,04,27,11,50,218.80
2015,04,27,11,51,200.40
2015,04,27,11,52,207.70
2015,04,27,11,53,240.90
2015,04,27,11,54,245.90
2015,04,27,11,55,201.30
2015,04,27,11,56,198.70
2015,04,27,11,57,203.00
2015,04,27,11,58,189.40
2015,04,27,11,59,168.70
2015,04,27,12,00,158.80
2015,04,27,12,01,137.90
2015,04,27,12,02,116.30
2015,04,27,12,03,109.00
2015,04,27,12,04,111.20
2015,04,27,12,05,115.10
2015,04,27,12,06,114.40
2015,04,27,12,07,111.90
2015,04,27,12,08,122.30
2015,04,27,12,09,132.10
2015,04,27,12,10,146.00
2015,04,27,12,11,157.10
2015,04,27,12,12,178.90
2015,04,27,12,13,191.70
2015,04,27,12,14,197.20
2015,04,27,12,15,200.30
2015,04,27,12,16,196.30
2015,04,27,12,17,211.60
2015,04,27,12,18,224.30
2015,04,27,12,19,215.70
2015,04,27,12,20,196.30
2015,04,27,12,21,217.20
2015,04,27,12,22,238.20
2015,04,27,12,23,206.90
2015,04,27,12,24,191.30
2015,04,27,12,25,204.10
2015,04,27,12,26,208.10
2015,04,27,12,27,234.50
2015,04,27,12,28,267.90
2015,04,27,12,29,270.90
2015,04,27,12,30,255.70
2015,04,27,12,31,184.50
2015,04,27,12,32,187.70
2015,04,27,12,33,280.60
2015,04,27,12,34,340.30
2015,04,27,12,35,328.40
2015,04,27,12,36,316.30
2015,04,27,12,37,251.30
2015,04,27,12,38,212.80
2015,04,27,12,39,216.10
2015,04,27,12,40,236.20
2015,04,27,12,41,235.70
2015,04,27,12,42,207.00
2015,04,27,12,43,195.00
2015,04,27,12,44,209.00
2015,04,27,12,45,224.80
2015,04,27,12,46,223.70
2015,04,27,12,47,222.40
2015,04,27,12,48,234.40
2015,04,27,12,49,259.50
2015,04,27,12,50,265.40
2015,04,27,12,51,266.10
2015,04,27,12,52,264.00
2015,04,27,12,53,265.70
2015,04,27,12,54,276.90
2015,04,27,12,55,269.60
2015,04,27,12,56,215.10
2015,04,27,12,57,187.30
2015,04,27,12,58,216.00
2015,04,27,12,59,200.30
2015,04,27,13,00,187.90
2015,04,27,13,01,159.00
2015,04,27,13,02,130.20
2015,04,27,13,03,126.70
2015,04,27,13,04,139.80
2015,04,27,13,05,108.80
2015,04,27,13,06,90.20
2015,04,27,13,07,100.80
2015,04,27,13,08,121.10
2015,04,27,13,09,119.70
2015,04,27,13,10,129.80
2015,04,27,13,11,137.00
2015,04,27,13,12,140.70
2015,04,27,13,13,148.00
2015,04,27,13,14,144.00
2015,04,27,13,15,113.70
2015,04,27,13,16,101.60
2015,04,27,13,17,99.30
2015,04,27,13,18,113.60
2015,04,27,13,19,123.80
2015,04,27,13,20,112.60
2015,04,27,13,21,105.90
2015,04,27,13,22,105.50
2015,04,27,13,23,104.00
2015,04,27,13,24,108.50
2015,04,27,13,25,102.80
2015,04,27,13,26,97.80
2015,04,27,13,27,104.40
2015,04,27,13,28,105.00
2015,04,27,13,29,110.60
2015,04,27,13,30,115.40
2015,04,27,13,31,134.10
2015,04,27,13,32,145.70
2015,04,27,13,33,150.00
2015,04,27,13,34,146.20
2015,04,27,13,35,147.30
2015,04,27,13,36,124.00
2015,04,27,13,37,104.00
2015,04,27,13,38,105.60
2015,04,27,13,39,108.00
2015,04,27,13,40,77.70
2015,04,27,13,41,64.10
2015,04,27,13,42,60.10
2015,04,27,13,43,55.30
2015,04,27,13,44,60.50
2015,04,27,13,45,63.10
2015,04,27,13,46,79.50
2015,04,27,13,47,92.30
2015,04,27,13,48,113.90
2015,04,27,13,49,142.00
2015,04,27,13,50,162.20
2015,04,27,13,51,174.70
2015,04,27,13,52,186.10
2015,04,27,13,53,191.70
2015,04,27,13,54,193.00
2015,04,27,13,55,180.80
2015,04,27,13,56,122.50
2015,04,27,13,57,102.90
2015,04,27,13,58,75.10
2015,04,27,13,59,76.10
2015,04,27,14,00,113.70
2015,04,27,14,01,151.10
2015,04,27,14,02,174.10
2015,04,27,14,03,188.60
2015,04,27,14,04,186.00
2015,04,27,14,05,188.70
2015,04,27,14,06,146.70
2015,04,27,14,07,135.90
2015,04,27,14,08,146.70
2015,04,27,14,09,154.30
2015,04,27,14,10,134.90
2015,04,27,14,11,108.90
2015,04,27,14,12,127.00
2015,04,27,14,13,116.60
2015,04,27,14,14,123.10
2015,04,27,14,15,165.20
2015,04,27,14,16,207.10
2015,04,27,14,17,208.80
2015,04,27,14,18,207.00
2015,04,27,14,19,211.90
2015,04,27,14,20,196.40
2015,04,27,14,21,179.10
2015,04,27,14,22,179.00
2015,04,27,14,23,199.90
2015,04,27,14,24,196.80
2015,04,27,14,25,183.70
2015,04,27,14,26,186.70
2015,04,27,14,27,202.70
2015,04,27,14,28,213.40
2015,04,27,14,29,188.30
2015,04,27,14,30,187.90
2015,04,27,14,31,218.00
2015,04,27,14,32,243.30
2015,04,27,14,33,261.00
2015,04,27,14,34,240.00
2015,04,27,14,35,223.80
2015,04,27,14,36,281.70
2015,04,27,14,37,329.00
2015,04,27,14,38,297.30
2015,04,27,14,39,288.10
2015,04,27,14,40,277.70
2015,04,27,14,41,264.20
2015,04,27,14,42,259.10
2015,04,27,14,43,253.30
2015,04,27,14,44,250.00
2015,04,27,14,45,237.90
2015,04,27,14,46,242.40
2015,04,27,14,47,265.10
2015,04,27,14,48,295.20
2015,04,27,14,49,307.50
2015,04,27,14,50,294.30
2015,04,27,14,51,317.70
2015,04,27,14,52,342.20
2015,04,27,14,53,324.00
2015,04,27,14,54,319.30
2015,04,27,14,55,358.30
2015,04,27,14,56,409.80
2015,04,27,14,57,392.70
2015,04,27,14,58,414.60
2015,04,27,14,59,467.00
2015,04,27,15,00,448.30
2015,04,27,15,01,400.80
2015,04,27,15,02,368.40
2015,04,27,15,03,369.00
2015,04,27,15,04,385.30
2015,04,27,15,05,411.80
2015,04,27,15,06,392.90
2015,04,27,15,07,398.40
2015,04,27,15,08,467.40
2015,04,27,15,09,485.30
2015,04,27,15,10,451.80
2015,04,27,15,11,476.00
2015,04,27,15,12,476.00
2015,04,27,15,13,476.00
2015,04,27,15,14,476.00
2015,04,27,15,15,476.00
2015,04,27,15,16,476.00
2015,04,27,15,17,472.90
2015,04,27,15,18,452.80
2015,04,27,15,19,442.40
2015,04,27,15,20,442.80
2015,04,27,15,21,463.70
2015,04,27,15,22,537.90
2015,04,27,15,23,622.50
2015,04,27,15,24,553.40
2015,04,27,15,25,501.90
2015,04,27,15,26,472.80
2015,04,27,15,27,452.50
2015,04,27,15,28,436.30
2015,04,27,15,29,416.60
2015,04,27,15,30,419.00
2015,04,27,15,31,619.00
2015,04,27,15,32,596.50
2015,04,27,15,33,566.60
2015,04,27,15,34,623.20
2015,04,27,15,35,645.00
2015,04,27,15,36,467.40
2015,04,27,15,37,388.50
2015,04,27,15,38,489.20
2015,04,27,15,39,939.30
2015,04,27,15,40,940.00
2015,04,27,15,41,940.00
2015,04,27,15,42,940.00
2015,04,27,15,43,940.00
2015,04,27,15,44,834.70
2015,04,27,15,45,819.40
2015,04,27,15,46,821.70
2015,04,27,15,47,814.50
2015,04,27,15,48,804.10
2015,04,27,15,49,836.00
2015,04,27,15,50,839.20
2015,04,27,15,51,837.00
2015,04,27,15,52,837.00
2015,04,27,15,53,837.00
2015,04,27,15,54,837.00
2015,04,27,15,55,832.90
2015,04,27,15,56,785.70
2015,04,27,15,57,766.00
2015,04,27,15,58,766.00
2015,04,27,15,59,766.00
2015,04,27,16,00,796.50
2015,04,27,16,01,846.80
2015,04,27,16,02,804.00
2015,04,27,16,03,771.80
2015,04,27,16,04,818.80
2015,04,27,16,05,752.20
2015,04,27,16,06,749.00
2015,04,27,16,07,769.10
2015,04,27,16,08,826.30
2015,04,27,16,09,851.00
2015,04,27,16,10,873.20
2015,04,27,16,11,879.00
2015,04,27,16,12,870.30
2015,04,27,16,13,766.20
2015,04,27,16,14,793.70
2015,04,27,16,15,802.80
2015,04,27,16,16,791.90
2015,04,27,16,17,774.70
2015,04,27,16,18,730.10
2015,04,27,16,19,741.20
2015,04,27,16,20,722.00
2015,04,27,16,21,730.70
2015,04,27,16,22,676.80
2015,04,27,16,23,642.30
2015,04,27,16,24,679.50
2015,04,27,16,25,694.70
2015,04,27,16,26,705.70
2015,04,27,16,27,729.20
2015,04,27,16,28,704.00
2015,04,27,16,29,764.60
2015,04,27,16,30,763.00
2015,04,27,16,31,763.00
2015,04,27,16,32,763.00
2015,04,27,16,33,613.30
2015,04,27,16,34,577.00
2015,04,27,16,35,650.00
2015,04,27,16,36,792.80
2015,04,27,16,37,789.00
2015,04,27,16,38,553.30
2015,04,27,16,39,454.80
2015,04,27,16,40,421.90
2015,04,27,16,41,415.00
2015,04,27,16,42,345.40
2015,04,27,16,43,317.60
2015,04,27,16,44,328.10
2015,04,27,16,45,328.50
2015,04,27,16,46,337.30
2015,04,27,16,47,337.00
2015,04,27,16,48,402.90
2015,04,27,16,49,432.00
2015,04,27,16,50,459.60
2015,04,27,16,51,494.00
2015,04,27,16,52,445.40
2015,04,27,16,53,425.00
2015,04,27,16,54,425.00
2015,04,27,16,55,485.90
2015,04,27,16,56,754.00
2015,04,27,16,57,754.00
2015,04,27,16,58,754.00
2015,04,27,16,59,754.00
2015,04,27,17,00,555.20
2015,04,27,17,01,553.30
2015,04,27,17,02,555.00
2015,04,27,17,03,555.00
2015,04,27,17,04,601.10
2015,04,27,17,05,626.20
2015,04,27,17,06,596.00
2015,04,27,17,07,596.00
2015,04,27,17,08,596.00
2015,04,27,17,09,596.00
2015,04,27,17,10,596.00
2015,04,27,17,11,474.70
2015,04,27,17,12,351.80
2015,04,27,17,13,381.00
2015,04,27,17,14,398.00
2015,04,27,17,15,389.40
2015,04,27,17,16,244.40
2015,04,27,17,17,275.30
2015,04,27,17,18,365.90
2015,04,27,17,19,392.00
2015,04,27,17,20,277.30
2015,04,27,17,21,255.90